| time (UTC) | temp C | wind direction | speed KPH | gust KPH | rain 1hr cm | rain 24hr cm | rain mn cm | humidity % | barometer mb |
| 20260904052503 | 25 | 161 | 3.2 | 4.8 | 0.00 | 0.00 | 0.00 | 89 | 1013.8 |
| 20260904050504 | 25 | 155 | 3.2 | 4.8 | 0.00 | 0.00 | 0.00 | 89 | 1013.5 |
| 20260904044503 | 25 | 147 | 4.8 | 8.0 | 0.00 | 0.00 | 0.00 | 88 | 1013.7 |
| 20260904043006 | 25 | 140 | 6.4 | 8.0 | 0.00 | 0.00 | 0.00 | 88 | 1013.7 |
| 20260904042006 | 25 | 142 | 4.8 | 8.0 | 0.00 | 0.00 | 0.00 | 87 | 1013.7 |
| 20260904041006 | 26 | 149 | 4.8 | 8.0 | 0.00 | 0.00 | 0.00 | 87 | 1013.8 |
| 20260904040505 | 26 | 150 | 4.8 | 8.0 | 0.00 | 0.00 | 0.00 | 87 | 1013.8 |
| 20260904040006 | 26 | 141 | 3.2 | 4.8 | 0.00 | 0.00 | 0.00 | 86 | 1013.7 |
| 20260904035505 | 26 | 135 | 4.8 | 4.8 | 0.00 | 0.00 | 0.00 | 86 | 1013.7 |
| 20260904035006 | 26 | 145 | 3.2 | 4.8 | 0.00 | 0.00 | 0.00 | 86 | 1013.7 |
| 20260904034505 | 26 | 143 | 4.8 | 4.8 | 0.00 | 0.00 | 0.00 | 86 | 1013.8 |
| 20260904033005 | 26 | 150 | 3.2 | 8.0 | 0.00 | 0.00 | 0.00 | 84 | 1013.7 |
| 20260904032506 | 26 | 146 | 4.8 | 8.0 | 0.00 | 0.00 | 0.00 | 84 | 1013.7 |
| 20260904031506 | 27 | 148 | 4.8 | 9.7 | 0.00 | 0.00 | 0.00 | 83 | 1013.5 |
| 20260904031006 | 27 | 158 | 6.4 | 9.7 | 0.00 | 0.00 | 0.00 | 83 | 1013.4 |
| 20260904030506 | 27 | 148 | 6.4 | 9.7 | 0.00 | 0.00 | 0.00 | 83 | 1013.4 |
| 20260904025005 | 27 | 154 | 8.0 | 11.3 | 0.00 | 0.00 | 0.00 | 82 | 1013.2 |
| 20260904024505 | 27 | 143 | 8.0 | 12.9 | 0.00 | 0.00 | 0.00 | 82 | 1013.2 |
| 20260904024006 | 27 | 143 | 8.0 | 12.9 | 0.00 | 0.00 | 0.00 | 82 | 1013.2 |
| 20260904022505 | 27 | 142 | 9.7 | 14.5 | 0.00 | 0.00 | 0.00 | 83 | 1013.1 |
| 20260904022005 | 27 | 146 | 8.0 | 12.9 | 0.00 | 0.00 | 0.00 | 84 | 1013.0 |
| 20260904020006 | 26 | 123 | 4.8 | 4.8 | 0.00 | 0.00 | 0.00 | 86 | 1013.0 |
| 20260904015506 | 26 | 114 | 4.8 | 4.8 | 0.00 | 0.00 | 0.00 | 86 | 1013.1 |
| 20260904015006 | 26 | 112 | 3.2 | 4.8 | 0.00 | 0.00 | 0.00 | 84 | 1013.0 |
| 20260904014506 | 27 | 122 | 3.2 | 4.8 | 0.00 | 0.00 | 0.00 | 84 | 1013.0 |
| 20260904013506 | 27 | 110 | 3.2 | 4.8 | 0.00 | 0.00 | 0.00 | 83 | 1013.0 |
| 20260904012508 | 27 | 111 | 4.8 | 4.8 | 0.00 | 0.00 | 0.00 | 81 | 1012.8 |
| 20260904011005 | 28 | 123 | 4.8 | 4.8 | 0.00 | 0.00 | 0.00 | 80 | 1012.5 |
| 20260904010506 | 28 | 124 | 4.8 | 9.7 | 0.00 | 0.00 | 0.00 | 80 | 1012.4 |
| 20260904005506 | 28 | 129 | 4.8 | 4.8 | 0.00 | 0.00 | 0.00 | 81 | 1012.3 |
| 20260904005006 | 28 | 121 | 3.2 | 4.8 | 0.00 | 0.00 | 0.00 | 80 | 1012.4 |
| 20260904004506 | 28 | 106 | 3.2 | 3.2 | 0.00 | 0.00 | 0.00 | 78 | 1012.4 |
| 20260904002006 | 30 | 157 | 3.2 | 4.8 | 0.00 | 0.00 | 0.00 | 74 | 1012.2 |
| 20260904001505 | 30 | 158 | 3.2 | 4.8 | 0.00 | 0.00 | 0.00 | 73 | 1012.2 |
| 20260904000006 | 30 | 160 | 4.8 | 9.7 | 0.00 | 0.00 | 0.00 | 71 | 1012.0 |
| 20260903235505 | 30 | 167 | 6.4 | 11.3 | 0.00 | 0.00 | 0.00 | 71 | 1011.9 |
| 20260903235006 | 31 | 167 | 8.0 | 12.9 | 0.00 | 0.00 | 0.00 | 71 | 1011.9 |
| 20260903234506 | 31 | 177 | 9.7 | 14.5 | 0.00 | 0.00 | 0.00 | 70 | 1011.8 |
| 20260903234006 | 31 | 165 | 8.0 | 14.5 | 0.00 | 0.00 | 0.00 | 70 | 1011.8 |
| 20260903233505 | 31 | 178 | 8.0 | 12.9 | 0.00 | 0.00 | 0.00 | 70 | 1011.8 |
| 20260903233005 | 31 | 180 | 8.0 | 12.9 | 0.00 | 0.00 | 0.00 | 69 | 1011.7 |
| 20260903232505 | 31 | 182 | 9.7 | 16.1 | 0.00 | 0.00 | 0.00 | 68 | 1011.8 |
| 20260903231005 | 32 | 179 | 8.0 | 22.5 | 0.00 | 0.00 | 0.00 | 67 | 1011.7 |
| 20260903230505 | 32 | 187 | 9.7 | 19.3 | 0.00 | 0.00 | 0.00 | 66 | 1011.6 |
| 20260903230005 | 32 | 159 | 12.9 | 22.5 | 0.00 | 0.00 | 0.00 | 66 | 1011.5 |
| 20260903225005 | 32 | 181 | 14.5 | 22.5 | 0.00 | 0.00 | 0.00 | 65 | 1011.6 |
| 20260903224005 | 32 | 190 | 12.9 | 19.3 | 0.00 | 0.00 | 0.00 | 66 | 1011.6 |
| 20260903223005 | 32 | 164 | 11.3 | 19.3 | 0.00 | 0.00 | 0.00 | 66 | 1011.6 |
| 20260903222505 | 32 | 181 | 9.7 | 24.1 | 0.00 | 0.00 | 0.00 | 65 | 1011.5 |
| 20260903221006 | 32 | 168 | 16.1 | 25.7 | 0.00 | 0.00 | 0.00 | 63 | 1011.4 |
| 20260903220005 | 33 | 169 | 16.1 | 25.7 | 0.00 | 0.00 | 0.00 | 60 | 1011.9 |
| 20260903215505 | 33 | 178 | 14.5 | 24.1 | 0.00 | 0.00 | 0.00 | 60 | 1012.1 |
| 20260903214505 | 34 | 171 | 12.9 | 19.3 | 0.00 | 0.00 | 0.00 | 60 | 1012.1 |
| 20260903214005 | 34 | 184 | 16.1 | 24.1 | 0.00 | 0.00 | 0.00 | 58 | 1012.2 |
| 20260903213505 | 35 | 186 | 9.7 | 19.3 | 0.00 | 0.00 | 0.00 | 57 | 1012.4 |
| 20260903213005 | 35 | 183 | 8.0 | 12.9 | 0.00 | 0.00 | 0.00 | 57 | 1012.5 |
| 20260903212006 | 35 | 205 | 9.7 | 20.9 | 0.00 | 0.00 | 0.00 | 55 | 1012.8 |
| 20260903211005 | 35 | 201 | 8.0 | 11.3 | 0.00 | 0.00 | 0.00 | 56 | 1012.9 |
| 20260903210505 | 34 | 204 | 9.7 | 14.5 | 0.00 | 0.00 | 0.00 | 55 | 1013.0 |
| 20260903204505 | 35 | 202 | 8.0 | 16.1 | 0.00 | 0.00 | 0.00 | 56 | 1013.5 |
| 20260903204005 | 35 | 233 | 8.0 | 14.5 | 0.00 | 0.00 | 0.00 | 56 | 1013.3 |
| 20260903203005 | 33 | 187 | 3.2 | 9.7 | 0.00 | 0.00 | 0.00 | 59 | 1013.4 |
| 20260903202005 | 33 | 221 | 9.7 | 14.5 | 0.00 | 0.00 | 0.00 | 57 | 1013.4 |
| 20260903201505 | 35 | 205 | 8.0 | 14.5 | 0.00 | 0.00 | 0.00 | 56 | 1013.4 |
| 20260903201005 | 35 | 184 | 9.7 | 19.3 | 0.00 | 0.00 | 0.00 | 55 | 1013.3 |
| 20260903200505 | 35 | 173 | 3.2 | 8.0 | 0.00 | 0.00 | 0.00 | 57 | 1013.3 |
| 20260903200005 | 35 | 211 | 4.8 | 16.1 | 0.00 | 0.00 | 0.00 | 56 | 1013.3 |
| 20260903195505 | 35 | 218 | 8.0 | 16.1 | 0.00 | 0.00 | 0.00 | 55 | 1013.3 |
| 20260903194005 | 35 | 179 | 8.0 | 12.9 | 0.00 | 0.00 | 0.00 | 56 | 1013.7 |
| 20260903193005 | 35 | 217 | 9.7 | 16.1 | 0.00 | 0.00 | 0.00 | 54 | 1013.5 |
| 20260903192005 | 34 | 180 | 12.9 | 20.9 | 0.00 | 0.00 | 0.00 | 55 | 1013.7 |
| 20260903191504 | 34 | 185 | 8.0 | 19.3 | 0.00 | 0.00 | 0.00 | 56 | 1013.9 |
| 20260903190504 | 34 | 171 | 8.0 | 12.9 | 0.00 | 0.00 | 0.00 | 57 | 1014.0 |
| 20260903190005 | 34 | 192 | 11.3 | 16.1 | 0.00 | 0.00 | 0.00 | 57 | 1014.0 |
| 20260903185005 | 34 | 181 | 9.7 | 12.9 | 0.00 | 0.00 | 0.00 | 59 | 1013.9 |
| 20260903184505 | 34 | 170 | 11.3 | 16.1 | 0.00 | 0.00 | 0.00 | 58 | 1013.8 |
| 20260903184005 | 34 | 141 | 8.0 | 12.9 | 0.00 | 0.00 | 0.00 | 59 | 1013.9 |
| 20260903183006 | 34 | 191 | 6.4 | 11.3 | 0.00 | 0.00 | 0.00 | 60 | 1014.0 |
| 20260903181505 | 32 | 214 | 1.6 | 3.2 | 0.00 | 0.00 | 0.00 | 62 | 1014.2 |
| 20260903180004 | 33 | 173 | 4.8 | 9.7 | 0.00 | 0.00 | 0.00 | 64 | 1014.3 |
| 20260903174505 | 31 | 158 | 4.8 | 9.7 | 0.00 | 0.00 | 0.00 | 68 | 1014.6 |
| 20260903172504 | 31 | 161 | 4.8 | 8.0 | 0.00 | 0.00 | 0.00 | 64 | 1014.7 |
| 20260903172005 | 31 | 123 | 4.8 | 9.7 | 0.00 | 0.00 | 0.00 | 64 | 1014.6 |
| 20260903170505 | 30 | 139 | 4.8 | 9.7 | 0.00 | 0.00 | 0.00 | 67 | 1014.6 |
| 20260903165004 | 31 | 154 | 8.0 | 11.3 | 0.00 | 0.00 | 0.00 | 67 | 1014.8 |
| 20260903164004 | 31 | 174 | 4.8 | 8.0 | 0.00 | 0.00 | 0.00 | 65 | 1014.8 |
| 20260903163005 | 31 | 192 | 8.0 | 12.9 | 0.00 | 0.00 | 0.00 | 68 | 1014.9 |
| 20260903162504 | 31 | 182 | 3.2 | 8.0 | 0.00 | 0.00 | 0.00 | 66 | 1014.9 |
| 20260903155505 | 30 | 122 | 4.8 | 9.7 | 0.00 | 0.00 | 0.00 | 71 | 1015.0 |
| 20260903155004 | 29 | 109 | 4.8 | 11.3 | 0.00 | 0.00 | 0.00 | 68 | 1015.1 |
| 20260903154005 | 30 | 74 | 4.8 | 9.7 | 0.00 | 0.00 | 0.00 | 66 | 1014.9 |
| 20260903153505 | 30 | 76 | 8.0 | 11.3 | 0.00 | 0.00 | 0.00 | 66 | 1015.0 |
| 20260903152504 | 30 | 82 | 4.8 | 4.8 | 0.00 | 0.00 | 0.00 | 68 | 1014.9 |
| 20260903152004 | 30 | 2 | 4.8 | 9.7 | 0.00 | 0.00 | 0.00 | 65 | 1014.9 |
| 20260903151504 | 30 | 19 | 4.8 | 8.0 | 0.00 | 0.00 | 0.00 | 69 | 1014.9 |
| 20260903150005 | 30 | 58 | 3.2 | 8.0 | 0.00 | 0.00 | 0.00 | 72 | 1014.9 |
| 20260903143505 | 28 | 329 | 4.8 | 8.0 | 0.00 | 0.00 | 0.00 | 74 | 1014.8 |
| 20260903142004 | 28 | 3 | 3.2 | 4.8 | 0.00 | 0.00 | 0.00 | 76 | 1014.9 |
| 20260903140004 | 26 | 355 | 0.0 | 3.2 | 0.00 | 0.00 | 0.00 | 81 | 1014.9 |
| 20260903135505 | 26 | 355 | 0.0 | 3.2 | 0.00 | 0.00 | 0.00 | 82 | 1015.0 |
| 20260903135005 | 26 | 355 | 0.0 | 3.2 | 0.00 | 0.00 | 0.00 | 82 | 1015.1 |
| 20260903134504 | 26 | 19 | 1.6 | 3.2 | 0.00 | 0.00 | 0.00 | 83 | 1015.1 |
| 20260903132504 | 24 | 311 | 8.0 | 16.1 | 0.00 | 0.00 | 0.00 | 88 | 1015.6 |
| 20260903132005 | 24 | 316 | 8.0 | 19.3 | 0.00 | 0.00 | 0.00 | 87 | 1015.6 |
| 20260903131005 | 24 | 279 | 8.0 | 32.2 | 0.00 | 0.00 | 0.00 | 87 | 1015.1 |
| 20260903130505 | 24 | 333 | 20.9 | 32.2 | 0.00 | 0.00 | 0.00 | 88 | 1015.6 |
| 20260903125506 | 23 | 169 | 1.6 | 3.2 | 0.00 | 0.00 | 0.00 | 89 | 1014.6 |
| 20260903124005 | 23 | 140 | 1.6 | 3.2 | 0.00 | 0.00 | 0.00 | 91 | 1014.5 |
| 20260903123004 | 22 | 124 | 3.2 | 3.2 | 0.00 | 0.00 | 0.00 | 92 | 1014.4 |
| 20260903121004 | 22 | 111 | 3.2 | 3.2 | 0.00 | 0.00 | 0.00 | 93 | 1014.4 |
| 20260903120504 | 22 | 110 | 3.2 | 3.2 | 0.00 | 0.00 | 0.00 | 94 | 1014.3 |
| 20260903120004 | 22 | 111 | 3.2 | 3.2 | 0.00 | 0.00 | 0.00 | 94 | 1014.3 |
| 20260903115504 | 22 | 111 | 1.6 | 3.2 | 0.00 | 0.00 | 0.00 | 94 | 1014.2 |
| 20260903114004 | 21 | 117 | 4.8 | 4.8 | 0.00 | 0.00 | 0.00 | 93 | 1014.0 |
| 20260903113005 | 21 | 122 | 3.2 | 4.8 | 0.00 | 0.00 | 0.00 | 93 | 1013.9 |
| 20260903112504 | 22 | 122 | 3.2 | 3.2 | 0.00 | 0.00 | 0.00 | 93 | 1013.8 |
| 20260903112004 | 21 | 124 | 3.2 | 4.8 | 0.00 | 0.00 | 0.00 | 93 | 1013.8 |
| 20260903111504 | 21 | 128 | 3.2 | 3.2 | 0.00 | 0.00 | 0.00 | 93 | 1013.8 |
| 20260903111004 | 22 | 128 | 1.6 | 3.2 | 0.00 | 0.00 | 0.00 | 93 | 1013.7 |
| 20260903105504 | 22 | 128 | 3.2 | 3.2 | 0.00 | 0.00 | 0.00 | 93 | 1013.8 |
| 20260903104504 | 22 | 128 | 3.2 | 3.2 | 0.00 | 0.00 | 0.00 | 92 | 1013.7 |
| 20260903104005 | 22 | 128 | 3.2 | 4.8 | 0.00 | 0.00 | 0.00 | 93 | 1013.7 |
| 20260903102504 | 22 | 128 | 3.2 | 3.2 | 0.00 | 0.00 | 0.00 | 93 | 1013.7 |
| 20260903101504 | 22 | 121 | 3.2 | 3.2 | 0.00 | 0.00 | 0.00 | 92 | 1013.9 |
| 20260903101004 | 22 | 132 | 3.2 | 4.8 | 0.00 | 0.00 | 0.00 | 92 | 1013.9 |
| 20260903100004 | 22 | 140 | 3.2 | 4.8 | 0.00 | 0.00 | 0.00 | 93 | 1013.9 |
| 20260903095504 | 22 | 138 | 3.2 | 4.8 | 0.00 | 0.00 | 0.00 | 93 | 1013.9 |
| 20260903092004 | 22 | 121 | 3.2 | 3.2 | 0.00 | 0.00 | 0.00 | 92 | 1013.9 |
| 20260903091004 | 22 | 132 | 3.2 | 4.8 | 0.00 | 0.00 | 0.00 | 92 | 1014.0 |
| 20260903085504 | 22 | 138 | 3.2 | 4.8 | 0.00 | 0.00 | 0.00 | 92 | 1014.0 |
| 20260903085005 | 22 | 134 | 3.2 | 4.8 | 0.00 | 0.00 | 0.00 | 93 | 1014.1 |
| 20260903084504 | 22 | 134 | 3.2 | 4.8 | 0.00 | 0.00 | 0.00 | 93 | 1014.0 |
| 20260903084004 | 22 | 125 | 3.2 | 4.8 | 0.00 | 0.00 | 0.00 | 93 | 1014.0 |
| 20260903083505 | 22 | 121 | 3.2 | 4.8 | 0.00 | 0.00 | 0.00 | 93 | 1013.8 |
| 20260903081504 | 22 | 114 | 3.2 | 4.8 | 0.00 | 0.00 | 0.00 | 93 | 1013.8 |
| 20260903081004 | 22 | 123 | 3.2 | 3.2 | 0.00 | 0.00 | 0.00 | 92 | 1013.8 |
| 20260903080504 | 23 | 123 | 1.6 | 3.2 | 0.00 | 0.00 | 0.00 | 92 | 1013.8 |
| 20260903074504 | 23 | 108 | 4.8 | 4.8 | 0.00 | 0.00 | 0.00 | 92 | 1013.8 |
| 20260903074004 | 23 | 114 | 4.8 | 4.8 | 0.00 | 0.00 | 0.00 | 92 | 1013.6 |
| 20260903072504 | 23 | 120 | 3.2 | 4.8 | 0.00 | 0.00 | 0.00 | 92 | 1013.7 |
| 20260903072004 | 23 | 127 | 4.8 | 4.8 | 0.00 | 0.00 | 0.00 | 92 | 1013.7 |
| 20260903070504 | 23 | 132 | 3.2 | 4.8 | 0.00 | 0.00 | 0.00 | 92 | 1013.9 |
| 20260903065004 | 23 | 129 | 3.2 | 4.8 | 0.00 | 0.00 | 0.00 | 92 | 1013.9 |
| 20260903064004 | 23 | 121 | 1.6 | 3.2 | 0.00 | 0.00 | 0.00 | 93 | 1013.9 |
| 20260903063004 | 23 | 121 | 3.2 | 3.2 | 0.00 | 0.00 | 0.00 | 92 | 1014.0 |
| 20260903062504 | 23 | 121 | 3.2 | 4.8 | 0.00 | 0.00 | 0.00 | 92 | 1014.0 |
| 20260903061504 | 23 | 127 | 3.2 | 4.8 | 0.00 | 0.00 | 0.00 | 92 | 1014.1 |
| 20260903060503 | 23 | 128 | 3.2 | 3.2 | 0.00 | 0.00 | 0.00 | 90 | 1014.1 |
| 20260903055004 | 24 | 128 | 4.8 | 4.8 | 0.00 | 0.00 | 0.00 | 90 | 1014.0 |
| 20260903053504 | 25 | 118 | 3.2 | 4.8 | 0.00 | 0.00 | 0.00 | 89 | 1014.0 |